Flag for Indonesia Weather past 2 weeks in Manado, North Sulawesi, Indonesia

Now
75 °F

Scattered clouds.


Feels Like: 73 °F
Forecast: 75 / 86 °F
Wind: 2 mph from North

Location: Menado / Dr. Sam Ratulangi

Current Time: Jan 31, 2015 at 7:27:18 AM

Latest Report: Jan 31, 2015 at 6:30 AM


Visibility: 6 mi

Pressure: 29.89 "Hg

Humidity: 100%

Dew point: 75 °F

Location of ManadoLocation

Historic Weather in Manado — Graph

°F

Manado temperature yesterday

Maximum temperature yesterday: 86 °F (at 12:00 PM)
Minimum temperature yesterday: 77 °F (at 12:00 AM)
Average temperature yesterday: 81 °F

Past Weeks' High & Low Weather Summary

 TemperatureHumidityPressure
High88 °F (Jan 24, 11:30 AM)100% (Jan 16, 6:00 AM)30.01 "Hg (Jan 16, 6:00 AM)
Low73 °F (Jan 18, 12:30 AM)22% (Jan 18, 10:30 PM)29.53 "Hg (Jan 18, 6:00 PM)
Average79 °F86%29.87 "Hg
* Reported Jan 16 6:00 AM — Jan 31 6:00 AM, Manado, Weather by CustomWeather, © 2014

Note: Actual official high and low records may vary slightly from our data, if they occured in-between our weather recording intervals... More about our weather records

Advertising

Manado weather history for previous 24 hours

 ConditionsComfort  
Time TempWeatherWind HumidityBarometerVisibility
6:00 AM
Jan 31
75 °FScattered clouds.1 mph94%29.86 "Hg6 mi
5:00 AM75 °FPassing clouds.1 mph94%29.86 "Hg6 mi
4:00 AM75 °FPassing clouds.1 mph94%29.86 "Hg6 mi
2:00 AM75 °FPassing clouds.2 mph100%29.86 "Hg6 mi
1:30 AM75 °FPassing clouds.2 mph100%29.86 "Hg6 mi
1:00 AM75 °FPassing clouds.3 mph100%29.86 "Hg6 mi
11:30 PM
Jan 30
77 °FPassing clouds.2 mph94%29.89 "Hg6 mi
11:00 PM77 °FPassing clouds.2 mph94%29.89 "Hg6 mi
10:30 PM77 °FLight rain. Passing clouds.3 mph94%29.89 "Hg5 mi
10:00 PM77 °FPassing clouds.2 mph94%29.89 "Hg6 mi
9:30 PM77 °FPassing clouds.No wind94%29.89 "HgN/A
9:00 PM77 °FPassing clouds.2 mph94%29.89 "HgN/A
8:30 PM77 °FPassing clouds.2 mph94%29.89 "HgN/A
8:00 PM77 °FPassing clouds.2 mph94%29.89 "HgN/A
7:30 PM79 °FPassing clouds.2 mph89%29.86 "HgN/A
7:00 PM79 °FPassing clouds.1 mph89%29.86 "HgN/A
6:30 PM79 °FPassing clouds.2 mph89%29.83 "HgN/A
6:00 PM81 °FPassing clouds.2 mph84%29.83 "HgN/A
5:30 PM82 °FScattered clouds.6 mph74%29.83 "HgN/A
5:00 PM84 °FPassing clouds.5 mph74%29.80 "HgN/A
4:30 PM86 °FScattered clouds.7 mph70%29.80 "Hg6 mi
4:00 PM86 °FScattered clouds.8 mph66%29.80 "Hg6 mi
3:30 PM86 °FScattered clouds.7 mph70%29.80 "Hg6 mi
3:00 PM84 °FScattered clouds.8 mph70%29.80 "Hg6 mi
2:30 PM86 °FScattered clouds.8 mph66%29.80 "Hg5 mi
2:00 PM86 °FScattered clouds.7 mph70%29.80 "Hg5 mi
1:30 PM84 °FScattered clouds.6 mph74%29.83 "Hg5 mi
1:00 PM84 °FScattered clouds.8 mph79%29.83 "Hg4 mi
12:30 PM86 °FScattered clouds.7 mph70%29.83 "Hg5 mi
12:00 PM86 °FScattered clouds.3 mph70%29.86 "Hg5 mi
11:30 AM84 °FScattered clouds.3 mph74%29.86 "Hg5 mi
11:00 AM84 °FScattered clouds.2 mph79%29.86 "Hg5 mi
10:30 AM84 °FScattered clouds.3 mph79%29.89 "Hg5 mi
10:00 AM84 °FLight rain. Scattered clouds.2 mph74%29.89 "Hg5 mi
9:30 AM82 °FScattered clouds.3 mph84%29.89 "Hg6 mi
9:00 AM82 °FPassing clouds.1 mph79%29.89 "HgN/A
8:30 AM81 °FScattered clouds.1 mph84%29.89 "Hg5 mi
8:00 AM79 °FLight rain. Scattered clouds.1 mph89%29.89 "Hg5 mi
7:30 AM77 °FScattered clouds.2 mph100%29.86 "Hg5 mi
7:00 AM77 °FScattered clouds.2 mph94%29.86 "Hg4 mi
Weather by CustomWeather, © 2014

See weather overviewHow to use our weather pages